ISS (ZARYA) 1 25544U 98067A 26106.19926477 .00005372 00000+0 10584-3 0 9997 2 25544 51.6325 246.8823 0006616 318.5233 41.5253 15.48930915562144 POISK 1 36086U 09060A 26105.87667374 .00005471 00000+0 10765-3 0 9998 2 36086 51.6326 248.4785 0006598 317.1782 42.8691 15.48928061561492 CSS (TIANHE) 1 48274U 21035A 26106.12836677 .00016257 00000+0 18121-3 0 9997 2 48274 41.4686 340.0449 0005797 217.8333 142.2100 15.62435361283464 ISS (NAUKA) 1 49044U 21066A 26105.87667374 .00005471 00000+0 10765-3 0 9996 2 49044 51.6326 248.4785 0006598 317.1782 42.8691 15.48928061561535 FREGAT DEB 1 49271U 11037PF 26104.93499389 .00000121 00000+0 33299-3 0 9994 2 49271 51.6410 191.9016 0947897 142.5117 224.5850 12.40990194217199 CSS (WENTIAN) 1 53239U 22085A 26106.12836677 .00016257 00000+0 18121-3 0 9990 2 53239 41.4686 340.0449 0005797 217.8333 142.2100 15.62435361283135 CSS (MENGTIAN) 1 54216U 22143A 26106.12836677 .00016257 00000+0 18121-3 0 9991 2 54216 41.4686 340.0449 0005797 217.8333 142.2100 15.62435361283670 TIANZHOU-9 1 64786U 25149A 26106.12836677 .00016257 00000+0 18121-3 0 9993 2 64786 41.4686 340.0449 0005797 217.8333 142.2100 15.62435361283673 PROGRESS-MS 32 1 65586U 25204A 26105.87667374 .00005471 00000+0 10765-3 0 9993 2 65586 51.6326 248.4785 0006598 317.1782 42.8691 15.48928061554503 YOTSUBA-KULOVER 1 65941U 98067XN 26106.72901255 .06739310 12393-4 74116-3 0 9994 2 65941 51.6034 215.6286 0009820 317.4833 42.5431 16.36262631 29572 BOTAN 1 65943U 98067XQ 26106.53125552 .01732649 11841-4 91974-3 0 9994 2 65943 51.6114 217.3644 0012556 327.0996 32.9239 16.19082533 29534 HRC MONOBLOCK CAMERA 1 66052U 98067XR 26106.64656890 .00039573 00000+0 37649-3 0 9996 2 66052 51.6268 233.3567 0004078 291.1158 68.9401 15.66421316 28333 HTV-X1 1 66174U 25241A 26106.66760310 .00004921 00000+0 16514-3 0 9997 2 66174 51.6356 249.9296 0007549 319.8130 40.2293 15.32662694 26768 SZ-21 MODULE 1 66515U 25246C 26105.96599745 .00025807 00000+0 19750-3 0 9996 2 66515 41.4747 333.3787 0004470 276.9705 83.0629 15.71515739 23936 SHENZHOU-22 1 66645U 25272A 26106.70363575 .00015180 00000+0 16937-3 0 9999 2 66645 41.4684 336.5354 0005879 221.3639 138.6756 15.62451456284133 SOYUZ-MS 28 1 66664U 25275A 26106.19926477 .00005372 00000+0 10584-3 0 9996 2 66664 51.6325 246.8823 0006616 318.5233 41.5253 15.48930915562311 DUPLEX 1 66906U 98067XS 26106.37868970 .00018548 00000+0 24281-3 0 9995 2 66906 51.6283 240.5799 0003948 299.1570 60.9027 15.58643949 21008 ISS OBJECT XT 1 66907U 98067XT 26106.53802279 .00264844 00000+0 97067-3 0 9998 2 66907 51.6199 230.3094 0010682 319.2164 40.8040 15.86987191 21155 ISS OBJECT XU 1 66908U 98067XU 26106.52962734 .00261990 00000+0 93734-3 0 9997 2 66908 51.6207 230.2490 0010632 318.5642 41.4556 15.87484633 21156 SILVERSAT 1 66909U 98067XV 26106.50517946 .00746015 27401-3 12562-2 0 9990 2 66909 51.6139 227.7796 0014259 325.7759 34.2332 16.01976079 21181 ISS OBJECT XW 1 66910U 98067XW 26106.50984691 .00198827 00000+0 86718-3 0 9996 2 66910 51.6190 230.8671 0009921 314.2664 45.7524 15.83563066 21148 ISS OBJECT XY 1 66912U 98067XY 26105.68161488 .00084317 00000+0 63111-3 0 9997 2 66912 51.6236 238.8979 0006625 305.6183 54.4198 15.71912015 20959 KNACKSAT-2 1 67683U 98067XZ 26106.68234738 .00026284 00000+0 38989-3 0 9997 2 67683 51.6302 242.6107 0011610 329.4345 30.5968 15.54966456 10698 CORAL 1 67684U 98067YA 26106.55147200 .00058268 00000+0 67644-3 0 9998 2 67684 51.6284 241.7336 0015216 321.3568 38.6336 15.61055918 10694 GXIBA-1 1 67685U 98067YB 26106.66443088 .00030658 00000+0 44077-3 0 9992 2 67685 51.6298 242.4910 0013528 326.2315 33.7814 15.55704875 10697 UITMSAT-2 1 67686U 98067YC 26105.60841351 .00035179 00000+0 48102-3 0 9997 2 67686 51.6289 247.4407 0010323 300.6666 59.3308 15.57033461 10532 HMU-SAT2 1 67687U 98067YD 26106.54431242 .00028132 00000+0 41071-3 0 9995 2 67687 51.6311 243.1932 0009783 306.4720 53.5369 15.55383177 10597 LEOPARD 1 67688U 98067YE 26106.64858253 .00033379 00000+0 46655-3 0 9994 2 67688 51.6302 242.3879 0010039 305.5314 54.4741 15.56470184 10617 CREW DRAGON 12 1 67796U 26031A 26106.19926477 .00005372 00000+0 10584-3 0 9994 2 67796 51.6325 246.8823 0006616 318.5233 41.5253 15.48930915562194 PROGRESS-MS 33 1 68319U 26058A 26106.19926477 .00005372 00000+0 10584-3 0 9995 2 68319 51.6325 246.8823 0006616 318.5233 41.5253 15.48930915 3703 CYGNUS NG-24 1 68689U 26079A 26105.87667374 .00005471 00000+0 10765-3 0 9991 2 68689 51.6326 248.4785 0006598 317.1782 42.8691 15.48928061 629